Flag for USA Past Weather in Fairbanks, Alaska, USA — Yesterday and Last 2 Weeks

Now
36 °F

More clouds than sun.


Feels Like: 36 °F
Forecast: 35 / 53 °F
Wind: No wind

Location: Wainwright U. S. Army Airfield

Current Time: May 26, 2017 at 5:17:52 am

Latest Report: May 26, 2017 at 4:29 am


Visibility: 7 mi

Pressure: 29.96 "Hg

Humidity: 100%

Dew Point: 36 °F

Location of FairbanksLocation

Past Weather in Fairbanks — Graph

°F

Fairbanks Temperature Yesterday

Maximum temperature yesterday: 52 °F (at 3:58 pm)
Minimum temperature yesterday: 38 °F (at 5:58 am)
Average temperature yesterday: 44 °F

High & Low Weather Summary for the Past Weeks

 TemperatureHumidityPressure
High70 °F (May 16, 5:58 pm)100% (May 15, 2:38 am)30.18 "Hg (May 15, 2:38 am)
Low33 °F (May 26, 1:58 am)17% (May 17, 12:58 pm)29.41 "Hg (May 21, 7:58 pm)
Average51 °F63%29.75 "Hg
* Reported May 11 4:58 am — May 26 4:21 am, Fairbanks. Weather by CustomWeather, © 2017

Note: Actual official high and low records may vary slightly from our data, if they occured in-between our weather recording intervals... More about our weather records

Advertising

Fairbanks Weather History for the Previous 24 Hours

Scroll right to see more
 ConditionsComfort  
Time TempWeatherWind HumidityBarometerVisibility
4:21 am
Fri, May 26
36 °FLight rain. Fog.No wind93%29.96 "Hg4 mi
3:58 am36 °FMore clouds than sun.No wind100%29.97 "Hg10 mi
3:33 am36 °FMostly cloudy.7 mph100%29.96 "Hg10 mi
2:58 am35 °FMostly cloudy.No wind97%29.96 "Hg8 mi
1:58 am33 °FClear.No wind98%29.93 "Hg9 mi
1:43 am34 °FFog.No wind100%29.91 "Hg5 mi
1:33 am34 °FFog.3 mph100%29.90 "Hg1 mi
12:58 am37 °FClear.No wind96%29.91 "Hg9 mi
11:58 pm
Thu, May 25
39 °FClear.No wind95%29.88 "Hg10 mi
10:58 pm40 °FSunny.No wind90%29.88 "Hg10 mi
9:58 pm40 °FBroken clouds.6 mph89%29.86 "Hg10 mi
9:03 pm39 °FFog.9 mph93%29.84 "Hg7 mi
8:53 pm39 °FLight rain. Fog.10 mph93%29.84 "Hg1 mi
8:43 pm39 °FLight rain. Fog.12 mph93%29.84 "Hg1 mi
8:28 pm41 °FLight rain. Cloudy.12 mph81%29.84 "Hg4 mi
8:08 pm45 °FThundershowers. Mostly cloudy.9 mph71%29.84 "Hg7 mi
7:58 pm46 °FLight rain. Mostly cloudy.6 mph62%29.84 "Hg8 mi
6:58 pm51 °FSunny.9 mph44%29.82 "Hg10 mi
5:58 pm49 °FSunny.10 mph46%29.82 "Hg10 mi
4:58 pm49 °FCloudy.13 mph47%29.83 "Hg10 mi
3:58 pm52 °FBroken clouds.10 mph32%29.83 "Hg10 mi
2:58 pm51 °FMostly cloudy.5 mph31%29.84 "Hg10 mi
1:58 pm50 °FScattered clouds.No wind34%29.85 "Hg10 mi
12:58 pm50 °FScattered clouds.7 mph37%29.87 "Hg10 mi
11:58 am49 °FBroken clouds.3 mph40%29.89 "Hg10 mi
10:58 am47 °FPartly sunny.7 mph56%29.90 "Hg10 mi
9:58 am44 °FPartly sunny.7 mph63%29.92 "Hg10 mi
8:58 am43 °FPartly sunny.15 mph65%29.92 "Hg9 mi
7:58 am43 °FBroken clouds.14 mph65%29.93 "Hg10 mi
6:58 am40 °FPartly sunny.5 mph76%29.92 "Hg10 mi
5:58 am38 °FScattered clouds.5 mph81%29.92 "Hg9 mi
Weather by CustomWeather, © 2017

See weather overviewHow to use our weather pages